www.pogodaiklimat.ru

Погода и климат >> Архив погоды >> Алжир >> Ин-Салах


АРХИВ ПОГОДЫ в Ин-Салах

Время (UTC), дата Ветер
(напр.,м/с)
 
Видим.   Явления Облачность Т
(С)
Тd
(С)
f
(%)
Тe
(С)
Тes
(С)
Комфортность P
(гПа)
Po
(гПа)
Тmin
(С)
Tmax
(С)
R
(мм)
R24
(мм)
S
(см)
21 16.07 С 2 9000 м 4/0
[Ac trans]
+38.6 +33 +33 жарко 1004.7 975.5
00 17.07 В 6 9000 м 4/0
[Ac trans]
+38.1 +33 +33 жарко 1005.8 976.5
03 17.07 В 7 9000 м 4/0
[Ac trans]
+36.2 +0.6 11 +33 +33 жарко 1005.3 975.9
06 17.07 В 7 9000 м 6/5 1500 м
[Cu med, cong Ac trans]
+35.1 +1.9 12 +32 +32 жарко 1006.6 977.0 +35.0
09 17.07 В 11 9000 м пыльный позёмок 6/4 1500 м
[Cu med, cong Ac lent Ci sp]
+40.3 +2.8 10 +37 +37 очень
жарко
1007.6 978.5
12 17.07 ЮВ 6 9000 м 3/0
[Ci sp]
+46.4 +41 +49 опасность
перегрева
1006.0 977.5
15 17.07 Ю 4 9000 м 4/3 1500 м
[Cu med, cong Ci sp]
+48.8 +43 +49 опасность
перегрева
1003.2 975.0
18 17.07 штиль 0 10 км 5/4 1500 м
[Cu med, cong Ci sp]
+47.1 +42 +42 опасность
перегрева
1002.5 974.1 +49.3
21 17.07 В 9 9000 м 4/3 1500 м
[Cu med, cong Ci sp]
+41.3 +36 +36 очень
жарко
1003.8 974.9
00 18.07 В 8 9000 м 4/3 1500 м
[Cu med, cong Ci sp]
+37.5 +0.3 10 +34 +34 очень
жарко
1003.6 974.3
03 18.07 В 8 9000 м 4/3 1500 м
[Cu med, cong Ci sp]
+34.5 +2.1 13 +31 +31 жарко 1002.4 972.9
06 18.07 В 8 9000 м 4/3 1500 м
[Cu med, cong Ci sp]
+32.8 +2.7 15 +30 +30 жарко 1002.8 973.1 +32.6
09 18.07 В 9 9000 м пыльный позёмок 5/0
[Ac trans Ci sp]
+39.8 +2.0 10 +36 +37 очень
жарко
1003.3 974.3
12 18.07 В 7 9000 м 5/0
[Ac lent Ci sp]
+46.8 +42 +45 опасность
перегрева
1002.5 974.1
15 18.07 С 3 9000 м 4/0
[Ac lent Ci sp]
+47.4 +42 +50 опасность
перегрева
1001.3 973.0
18 18.07 В 6 9000 м 4/0
[Ac trans Ci sp]
+45.9 +41 +41 опасность
перегрева
1001.2 972.8 +48.4
21 18.07 В 8 8000 м 4/0
[Ac lent Ci sp]
+39.6 +7.4 14 +37 +37 очень
жарко
1002.4 973.4
00 19.07 В 9 8000 м пыльный позёмок 4/0
[Ac lent Ci sp]
+36.8 +5.9 15 +34 +34 очень
жарко
1002.9 973.6
03 19.07 СВ 10 8000 м пыльный позёмок 4/0
[Ac lent Ci sp]
+34.7 +6.1 17 +32 +32 жарко 1002.6 973.1
06 19.07 В 12 8000 м пыльный позёмок 4/0
[Ac lent Ci sp]
+33.7 +6.8 19 +32 +32 жарко 1002.8 973.2 +33.0
09 19.07 В 12 6000 м пыльный позёмок 4/0
[Ac trans Ci sp]
+39.7 +6.3 13 +37 +37 очень
жарко
1004.4 975.3
12 19.07 В 11 5000 м пыльный позёмок 4/0
[Ac trans Ci sp]
+46.8 +42 +42 опасность
перегрева
1003.5 975.1
15 19.07 В 6 6000 м пыльный позёмок 6/3 1500 м
[Cu med, cong Ac trans Ci sp]
+48.8 +43 +46 опасность
перегрева
1001.6 973.4
18 19.07 СВ 7 8000 м 6/3 1500 м
[Cu med, cong Ac trans Ci sp]
+47.1 +42 +42 опасность
перегрева
1001.5 973.2 +49.3
21 19.07 СВ 9 8000 м пыльный позёмок 6/3 1500 м
[Cu med, cong Ac lent Ci sp]
+41.5 +36 +36 очень
жарко
1004.1 975.2
00 20.07 В 10 8000 м пыльный позёмок 6/3 1500 м
[Cu med, cong Ac trans Ci sp]
+39.4 +0.8 9 +36 +36 очень
жарко
1005.1 976.0
03 20.07 С 9 7000 м пыльный позёмок 8/4 1380 м
[Cu med, cong Ac trans Ci sp]
+38.4 +1.0 10 +35 +35 очень
жарко
1006.4 977.1
06 20.07 В 12 2000 м пыльный позёмок 8/4 1380 м
[Cu med, cong Ac lent Ci sp]
+36.8 +1.0 11 +33 +33 жарко 1005.9 976.5 +36.1
09 20.07 В 10 5000 м пыльный позёмок 8/4 1380 м
[Cu med, cong Ac lent Ci sp]
+40.0 +1.2 9 +36 +37 очень
жарко
1007.6 978.4
12 20.07 СВ 7 7000 м 8/4 1380 м
[Cu med, cong Ac lent Ci sp]
+44.8 +4.7 9 +42 +44 опасность
перегрева
1007.6 978.9
15 20.07 В 6 8000 м 8/3 1380 м
[Cu med, cong Ac lent Ci sp]
+46.1 +41 +43 опасность
перегрева
1005.8 977.2
18 20.07 СВ 6 8000 м 6/3 1380 м
[Cu med, cong Ac trans Ci sp]
+44.5 +39 +40 очень
жарко
1005.4 976.7 +47.0
21 20.07 СВ 7 8000 м 6/3 1500 м
[Cu med, cong Ac trans Ci sp]
+39.3 +34 +34 очень
жарко
1008.7 979.5
00 21.07 СВ 7 8000 м 5/4 1500 м
[Cu med, cong Ac trans]
+37.0 +32 +32 жарко 1009.4 979.9
03 21.07 СВ 10 8000 м пыльный позёмок 5/4 1500 м
[Cu med, cong Ac trans]
+35.4 +0.1 11 +32 +32 жарко 1008.4 978.8
06 21.07 СВ 10 8000 м пыльный позёмок 3/3 1500 м
[Cu med, cong Ac trans]
+34.1 +0.9 12 +31 +31 жарко 1009.6 979.8 +34.0
09 21.07 В 11 2000 м пыльный позёмок 3/0
[Ac lent]
+39.3 +6.3 13 +37 +37 очень
жарко
1010.4 981.1
12 21.07 В 11 4000 м пыльный позёмок ясно +43.8 +7.0 11 +41 +41 опасность
перегрева
1009.1 980.3
15 21.07 СВ 10 6000 м пыльный позёмок ясно +44.7 +5.5 10 +42 +42 опасность
перегрева
1008.9 980.1
18 21.07 В 10 8000 м пыльный позёмок ясно +42.8 +38 +38 очень
жарко
1007.2 978.3 +45.6
21 21.07 СВ 6 8000 м ясно +37.2 +32 +32 жарко 1009.3 979.8
00 22.07 СВ 7 8000 м ясно +36.0 -1.5 9 +32 +32 жарко 1009.4 979.8
03 22.07 СВ 7 8000 м ясно +34.7 0.0 11 +31 +31 жарко 1009.0 979.3
06 22.07 СВ 10 6000 м пыльный позёмок ясно +34.1 0.0 11 +31 +31 жарко 1010.0 980.2 +34.0
09 22.07 В 11 5000 м пыльный позёмок ясно +40.3 +1.9 9 +37 +37 очень
жарко
1010.4 981.2
12 22.07 В 11 4000 м пыльный позёмок ясно +43.6 +39 +39 очень
жарко
1009.2 980.3
15 22.07 СВ 9 8000 м пыльный позёмок 3/3 1500 м
[Cu med, cong]
+44.9 +40 +41 очень
жарко
1007.6 978.9
18 22.07 В 8 8000 м 3/3 1500 м
[Cu med, cong]
+42.5 +3.0 9 +39 +39 очень
жарко
1007.0 978.1 +45.1
21 22.07 СВ 7 9000 м 3/3 1500 м
[Cu med, cong]
+37.7 +0.7 10 +34 +34 очень
жарко
1008.4 979.0
00 23.07 СВ 6 10 км 3/3 1500 м
[Cu med, cong]
+34.7 +0.4 11 +31 +31 жарко 1009.3 979.6
03 23.07 СВ 7 10 км 3/3 1500 м
[Cu med, cong]
+32.8 +0.5 13 +30 +30 жарко 1009.2 979.3
06 23.07 СВ 6 10 км ясно +30.9 +2.3 16 +28 +29 жарко 1010.0 979.9 +30.7
09 23.07 В 11 6000 м пыльный позёмок ясно +38.1 +10.2 19 +37 +37 очень
жарко
1010.5 981.1
12 23.07 СВ 8 8000 м ясно +42.6 +8.1 13 +41 +44 опасность
перегрева
1009.5 980.5
15 23.07 СВ 7 8000 м 3/3 1500 м
[Cu med, cong]
+42.9 +8.5 13 +41 +43 опасность
перегрева
1007.9 979.0
18 23.07 СВ 7 8000 м 4/4
[Cu med, cong]
+40.8 +9.1 15 +39 +39 очень
жарко
1007.9 978.8 +44.0

 

Местоположение метеостанции Ин-Салах (Алжир): широта 27.23 долгота 2.50 высота над уровнем моря 269 м.

В архиве по умолчанию представлена погода в Ин-Салах за последнюю неделю. Архивные данные за месяц целиком и за предыдущие месяцы, начиная с января 2011 года, Вы можете получить, выбрав интересующий диапазон дат из раскрывающегося списка и нажав кнопку "Ввод!".


*Определитесь, кто Вы:
робот инопланетянин человек

Внимание! Время в таблицах - всемирное. Для получения местного времени необходимо прибавить поправку, которая равна 1 ч.

Смотрите также архив погоды в соседних городах и на ближайших метеорологических станциях:

Погода в Араке (Алжир) (254 км)
Погода в Адраре (Алжир) (274 км)
Погода в Тимимуне (Алжир) (313 км)
Погода в Abankor (Алжир) (326 км)
Погода в Moulay Lachen (Алжир) (350 км)
Погода в Эль-Голеа (Алжир) (373 км)
Погода в Ин-Зиза (Алжир) (418 км)
Погода в Mertouek (Алжир) (455 км)
Погода в Роуд-Ноусс (Алжир) (495 км)
Погода в Tin Fouye (Алжир) (514 км)

Пояснения к столбцам:

Ветер - указаны скорость ветра в м/с - средняя за 10 мин, порывы в срок и между сроками (в фигурных скобках) и направление, откуда дует ветер: С - северный, СВ - северо-восточный, В - восточный, ЮВ - юго-восточный, Ю - южный, ЮЗ - юго-западный, З - западный, СЗ - северо-западный.
Видимость - горизонтальная дальность видимости в метрах или километрах. При видимости от 1 до 10 км при отсутствии осадков обычно наблюдается дымка, при ухудшении видимости до 1 км и менее - туман. В сухую погоду видимость может ухудшаться дымом, пылью или мглою.
Явления - указаны атмосферные явления, наблюдавшиеся в срок или в последний час перед сроком; фигурными скобками обозначены явления, наблюдавшиеся между сроками (за 1-3 часа до срока); квадратными скобками обозначены град или гололедные отложения с указанием их диаметра в мм.
Облачность - указаны через наклонную черту общая и нижняя облачность в баллах и высота нижней границы облаков в метрах; квадратными скобками обозначены формы облаков: Ci - перистые, Cs - перисто-слоистые, Cc - перисто-кучевые, Ac - высококучевые, As - высокослоистые, Sc - слоисто-кучевые, Ns - слоисто-дождевые, Cu - кучевые, Cb - кучево-дождевые. Подробнее классификацию облаков см. в Атласе облаков (PDF).
T - Температура воздуха - температура, измеренная на высоте 2 м над землей.
Td - Температура точки росы - температура, при понижении до которой содержащийся в воздухе водяной пар достигнет насыщения.
f - Относительная влажность воздуха - влажноcть воздуха, измеренная на высоте 2 м над землей.
Te - Эффективная температура - температура, которую ощущает одетый по сезону человек в тени. Характеристика душности погоды. При расчете учитывается влияние влажности воздуха и скорости ветра на теплоощущения человека.
Tes - Эффективная температура на солнце - температура, которую ощущает человек, с поправкой на солнечный нагрев. Характеристика знойности погоды. Зависит от высоты солнца над горизонтом, облачности и скорости ветра. Ночью, в пасмурную погоду, а также при ветре 12 м/с и более поправка равна нулю.
P - Атмосферное давление - приведенное к уровню моря атмосферное давление.
Po - Атмосферное давление - измеренное на уровне метеостанции атмосферное давление.
Tmin - Минимальная температура - минимум температуры воздуха на высоте 2 м над землей.
Tmax - Максимальная температура - максимум температуры воздуха на высоте 2 м над землей.
R - Количество осадков - Количество выпавших осадков за период времени, мм. При наведении курсора мыши на число - период времени, за который выпало указанное количество осадков.
R24 - Количество осадков - Количество выпавших осадков за 24 часа, мм.
S - Снежный покров - Высота снежного покрова, см. При наведении курсора мыши на число - состояние снежного покрова и степень покрытия местности в баллах.